This is the latest recevied weather packets stored in our database for station/object 9M4GEK-3. If no packets are shown the sender has not sent any weather packets the latest 10 day(s).
| Time | Temp. | Humidity | Pressure | Rain* | Wind** | Luminosity | Snow |
|---|---|---|---|---|---|---|---|
| 1777818986 | 26.11° C | 79% | 1009.2 hPa | - | - | - | - |
| 1777818116 | 26.11° C | 79% | 1009.1 hPa | - | - | - | - |
| 1777817123 | 26.11° C | 78% | 1008.9 hPa | - | - | - | - |
| 1777816286 | 26.11° C | 78% | 1008.5 hPa | - | - | - | - |
| 1777815401 | 26.67° C | 78% | 1008.1 hPa | - | - | - | - |
| 1777815324 | 26.67° C | 78% | 1008.1 hPa | - | - | - | - |
| 1777814525 | 26.67° C | 78% | 1008.1 hPa | - | - | - | - |
| 1777811818 | 26.11° C | 77% | 1007.7 hPa | - | - | - | - |
| 1777810896 | 26.67° C | 76% | 1007.3 hPa | - | - | - | - |
| 1777810822 | 26.67° C | 76% | 1007.3 hPa | - | - | - | - |
| 1777803659 | 27.22° C | 74% | 1006 hPa | - | - | - | - |
| 1777802721 | 26.67° C | 75% | 1006 hPa | - | - | - | - |
| 1777801949 | 26.67° C | 75% | 1005.8 hPa | - | - | - | - |
| 1777801820 | 26.67° C | 75% | 1005.8 hPa | - | - | - | - |
| 1777800920 | 27.22° C | 75% | 1005.9 hPa | - | - | - | - |
| 1777800019 | 27.22° C | 75% | 1005.9 hPa | - | - | - | - |
| 1777799119 | 26.67° C | 76% | 1005.7 hPa | - | - | - | - |
| 1777798312 | 26.11° C | 78% | 1005.4 hPa | - | - | - | - |
| 1777798219 | 26.11° C | 78% | 1005.4 hPa | - | - | - | - |
| 1777797318 | 26.11° C | 81% | 1005.7 hPa | - | - | - | - |
| 1777796417 | 26.11° C | 82% | 1005.6 hPa | - | - | - | - |
| 1777795517 | 26.67° C | 83% | 1006.2 hPa | - | - | - | - |
| 1777794710 | 26.11° C | 82% | 1006.3 hPa | - | - | - | - |
| 1777794617 | 26.11° C | 82% | 1006.3 hPa | - | - | - | - |
| 1777793717 | 30.56° C | 58% | 1006.2 hPa | - | - | - | - |
* Rain since midnight (hover to see other rain measurements)
** Current wind speed in m/s (hover to see current wind gust speed)